Miscellaneous Local Product
Issued by NWS North Platte, NE

Home | Current Version | Previous Version | Text Only | Print | Product List | Glossary On
Versions: 1 2 3 4 5 6 7 8 9 10 11 12 13 14 15 16 17 18 19 20 21 22 23 24 25 26 27 28 29 30 31 32 33 34 35 36 37 38 39 40 41 42 43 44 45 46 47 48 49 50
867
AXUS43 KLBF 062310
MISLBF


WESTERN AND NORTH CENTRAL NEBRASKA HOURLY WEATHER ROUNDUP
NATIONAL WEATHER SERVICE NORTH PLATTE NE
500 PM CST SAT FEB 06 2016

NOTE: "FAIR" INDICATES FEW OR NO CLOUDS BELOW 12,000 FEET WITH NO
SIGNIFICANT WEATHER AND/OR OBSTRUCTIONS TO VISIBILITY.

NOTE: STATIONS NOT REPORTING VARIABLES SUCH AS SKY/WEATHER OR
PRESSURE ARE PROVIDED BY THE NEBRASKA DEPARTMENT OF
ROADS...RAWS...AND APRS NETWORKS...AND ARE NOT UNDER
NATIONAL WEATHER SERVICE QUALITY CONTROL.

...OBSERVATIONS IN AND NEAR THE EASTERN PANHANDLE OF NEBRASKA...

CITY           SKY/WX    TMP DP  RH WIND       PRES   REMARKS
PINE RIDGE     CLOUDY    44  27  51 W12       29.91F
CHADRON        CLOUDY    44  30  57 W10       29.92S
ALLIANCE       CLOUDY    37  28  70 W28G33    29.94S WCI  25
SIDNEY         CLOUDY    41  28  60 W16       30.01F
CRESCENT LAKE    N/A     42  27  54 W13G20      N/A
$$

...OBSERVATIONS IN NORTH CENTRAL NEBRASKA...

CITY           SKY/WX    TMP DP  RH WIND       PRES   REMARKS
VALENTINE      CLOUDY    45  27  49 W13       29.89F
THEDFORD       CLOUDY    43  30  60 W12       29.94S
AINSWORTH      CLOUDY    44  29  55 W13       29.90F
O`NEILL        PTCLDY    41  30  64 SW9       29.91R
ORD            PTCLDY    38  28  67 SW18      29.94F WCI  28
BROKEN BOW     CLOUDY    38  27  64 W14       29.95F WCI  30
VALENTINE NWR    N/A     44  26  48 W12         N/A
BUTTE            N/A     46  33  61 SW7         N/A
HALSEY           N/A     45  28  50 SW7G14      N/A
CHAMBERS         N/A     41  26  55 S7          N/A
EWING            N/A     38  31  76 S9          N/A  WCI  31
$$

...OBSERVATIONS IN SOUTHWEST NEBRASKA AND FAR NORTHEAST COLORADO...

CITY           SKY/WX    TMP DP  RH WIND       PRES   REMARKS
WRAY           FAIR      43  27  52 SW9       30.07F
HOLYOKE        FAIR      41  27  56 W12       30.05S
IMPERIAL       CLOUDY    37  27  67 W9        30.04F WCI  30
OGALLALA       CLOUDY    32  23  70 W8        30.02F WCI  25
NORTH PLATTE   CLOUDY    39  25  57 W14       30.01F WCI  31
MCCOOK         CLOUDY    38  26  62 SW12      30.06F WCI  30
LEXINGTON      CLOUDY    38  25  60 SW12      30.01F WCI  30
PAXTON           N/A     35  29  79 W5          N/A  WCI  31
STAPLETON        N/A     37  30  75 CALM        N/A
GOTHENBURG       N/A     41  24  50 SW8         N/A
CALLAWAY         N/A     37  28  71 SW18        N/A  WCI  27
$$

...OBSERVATIONS IN CENTRAL LINCOLN COUNTY AREA...

CITY           SKY/WX    TMP DP  RH WIND       PRES   REMARKS
N.P. AIRPORT   CLOUDY    39  25  57 W14       30.01F WCI  31
N.P. DOWNTOWN    N/A     38  28  67 MISG        N/A
N.P. SOUTHEAST   N/A     39  28  66 W5          N/A
N.P. HILLCREST   N/A     36  28  73 W8          N/A  WCI  30
$$

...SOME OBSERVATIONS FROM AROUND THE REGION...

CITY           SKY/WX    TMP DP  RH WIND       PRES   REMARKS
DENVER         CLOUDY    48  21  34 W17       30.08F
LARAMIE        CLOUDY    36  17  46 SW23G41   30.13R WCI  24
CHEYENNE       CLOUDY    43  18  36 NW7       30.07F
SCOTTSBLUFF    CLOUDY    42  24  49 W22G30    30.01S
RAPID CITY     CLOUDY    48  27  44 N16       29.85R
BISMARCK       CLOUDY    53  27  36 W17G29    29.68F
PIERRE         CLOUDY    49  30  48 W15       29.80R
WINNER         FAIR      44  30  57 SW13      29.83F
SIOUX FALLS    CLOUDY    35  25  66 SW13      29.87F WCI  26
OMAHA          CLOUDY    41  27  57 S16G23    30.06F
GRAND ISLAND   PTCLDY    33  24  69 SW22      30.02F WCI  21
KANSAS CITY    PTCLDY    46  30  53 SW15      30.18F
WICHITA        PTCLDY    50  25  37 SW13      30.22F
OKLAHOMA CITY  MOSUNNY   50  26  39 SW6       30.29F
LIBERAL        CLOUDY    55  14  19 SW12      30.18F
HAYS           SUNNY     43  25  49 SW12      30.15S
GOODLAND       CLOUDY    40  24  53 SW15      30.10F WCI  32
$$




USA.gov is the U.S. government's official web portal to all federal, state and local government web resources and services.